TimeEDT,TemperatureF,Dew PointF,Humidity,Sea Level PressureIn,VisibilityMPH,Wind Direction,Wind SpeedMPH,Gust SpeedMPH,PrecipitationIn,Events,Conditions,WindDirDegrees,DateUTC
12:54 AM,54.0,34.0,47,29.95,10.0,South,8.1,-,N/A,,Scattered Clouds,180,2013-04-24 04:54:00
1:54 AM,53.1,34.0,48,29.93,10.0,South,6.9,-,N/A,,Partly Cloudy,170,2013-04-24 05:54:00
2:54 AM,54.0,34.0,47,29.91,10.0,South,13.8,18.4,N/A,,Scattered Clouds,190,2013-04-24 06:54:00
3:54 AM,54.0,35.1,49,29.89,10.0,South,10.4,-,N/A,,Overcast,180,2013-04-24 07:54:00
4:54 AM,54.0,35.1,49,29.87,10.0,South,10.4,-,N/A,,Overcast,190,2013-04-24 08:54:00
5:54 AM,55.0,36.0,49,29.87,10.0,SSW,10.4,-,N/A,,Overcast,200,2013-04-24 09:54:00
6:54 AM,55.0,37.0,51,29.87,10.0,SSW,10.4,-,0.00,,Overcast,200,2013-04-24 10:54:00
7:54 AM,54.0,37.9,55,29.87,10.0,SSW,8.1,-,0.00,Rain,Light Rain,200,2013-04-24 11:54:00
8:54 AM,53.1,43.0,69,29.84,10.0,South,10.4,19.6,0.01,Rain,Light Rain,190,2013-04-24 12:54:00
9:54 AM,55.9,45.0,67,29.82,10.0,South,10.4,-,0.00,,Overcast,180,2013-04-24 13:54:00
10:54 AM,61.0,46.0,58,29.77,10.0,SSW,10.4,-,N/A,,Overcast,200,2013-04-24 14:54:00
11:54 AM,64.0,48.0,56,29.75,10.0,SSW,15.0,-,N/A,,Overcast,210,2013-04-24 15:54:00
12:54 PM,69.1,50.0,51,29.70,10.0,SSW,20.7,28.8,N/A,,Overcast,210,2013-04-24 16:54:00
1:54 PM,66.9,50.0,54,29.71,10.0,SSW,17.3,24.2,0.00,Rain,Light Rain,210,2013-04-24 17:54:00
2:54 PM,66.9,50.0,54,29.66,10.0,SSW,13.8,21.9,0.00,,Overcast,210,2013-04-24 18:54:00
3:54 PM,63.0,52.0,67,29.66,7.0,SSW,16.1,23.0,0.00,Rain,Light Rain,210,2013-04-24 19:54:00
4:54 PM,64.0,53.1,67,29.62,10.0,WSW,21.9,29.9,0.02,,Overcast,240,2013-04-24 20:54:00
5:54 PM,64.0,53.1,67,29.61,10.0,SSW,16.1,23.0,0.00,,Overcast,210,2013-04-24 21:54:00
6:16 PM,53.6,48.2,82,29.65,10.0,West,24.2,43.7,N/A,,Overcast,270,2013-04-24 22:16:00
6:54 PM,51.1,44.1,77,29.70,10.0,West,26.5,38.0,N/A,,Overcast,270,2013-04-24 22:54:00
7:13 PM,48.2,42.8,82,29.70,5.0,West,21.9,38.0,0.00,Rain,Light Rain,270,2013-04-24 23:13:00
7:54 PM,45.0,41.0,86,29.77,7.0,WNW,17.3,23.0,0.01,Rain,Rain,290,2013-04-24 23:54:00
8:54 PM,42.1,37.9,85,29.85,10.0,West,23.0,31.1,0.01,,Overcast,270,2013-04-25 00:54:00
9:23 PM,42.8,37.4,81,29.87,10.0,West,19.6,31.1,N/A,,Overcast,270,2013-04-25 01:23:00
9:54 PM,41.0,37.0,86,29.92,10.0,West,17.3,25.3,0.00,Rain,Light Rain,270,2013-04-25 01:54:00
10:54 PM,39.9,34.0,79,29.98,10.0,West,17.3,27.6,0.00,,Overcast,270,2013-04-25 02:54:00
11:54 PM,39.9,34.0,79,30.01,10.0,West,13.8,23.0,0.00,,Overcast,270,2013-04-25 03:54:00